NIMIQ 4 1 33373U 08044A 21101.14363970 -.00000230 00000-0 00000+0 0 9998 2 33373 0.0206 253.3444 0002678 117.8161 158.1281 1.00272991 45851 BREEZE-M DEB [TANK] 1 33374U 08044B 21100.36315271 .00000188 00000-0 14791-3 0 9990 2 33374 49.5138 23.9849 5430793 202.4447 120.0334 4.88259313221956 BREEZE-M R/B 1 33375U 08044C 21101.11097625 -.00000271 00000-0 00000+0 0 9993 2 33375 11.6603 274.6897 5979967 60.9269 238.0409 2.03677178 93433